Time,TemperatureF,DewpointF,PressureIn,WindDirection,WindDirectionDegrees,WindSpeedMPH,WindSpeedGustMPH,Humidity,HourlyPrecipIn,Conditions,Clouds,dailyrainin,SoftwareType,DateUTC
2013-04-15 00:02:00,23.0,11.0,-100.00,SSE,164,2.0,5.0,58,0.00,,,-99.99,,2013-04-15 06:02:00,
2013-04-15 00:12:00,24.0,12.0,-100.00,South,182,2.0,4.0,60,0.00,,,-99.99,,2013-04-15 06:12:00,
2013-04-15 00:22:00,23.0,12.0,-100.00,South,186,7.0,12.0,61,0.00,,,-99.99,,2013-04-15 06:22:00,
2013-04-15 00:33:00,22.0,13.0,-100.00,WSW,246,7.0,11.0,68,0.00,,,-99.99,,2013-04-15 06:33:00,
2013-04-15 00:42:00,23.0,14.0,-100.00,SW,216,8.0,18.0,70,0.00,,,-99.99,,2013-04-15 06:42:00,
2013-04-15 00:52:00,22.0,16.0,-100.00,South,178,12.0,17.0,78,0.00,,,-99.99,,2013-04-15 06:52:00,
2013-04-15 01:02:00,21.0,18.0,-100.00,South,188,10.0,13.0,86,0.00,,,-99.99,,2013-04-15 07:02:00,
2013-04-15 01:42:00,20.0,19.0,-100.00,South,172,5.0,7.0,94,0.00,,,-99.99,,2013-04-15 07:42:00,
2013-04-15 01:52:00,20.0,19.0,-100.00,SSE,164,4.0,6.0,94,0.00,,,-99.99,,2013-04-15 07:52:00,
2013-04-15 02:02:00,20.0,19.0,-100.00,SSE,165,2.0,4.0,95,0.00,,,-99.99,,2013-04-15 08:02:00,
2013-04-15 02:13:00,20.0,19.0,-100.00,South,169,3.0,4.0,94,0.00,,,-99.99,,2013-04-15 08:13:00,
2013-04-15 02:22:00,20.0,19.0,-100.00,SSE,161,2.0,4.0,94,0.00,,,-99.99,,2013-04-15 08:22:00,
2013-04-15 02:42:00,20.0,18.0,-100.00,ESE,120,2.0,4.0,93,0.00,,,-99.99,,2013-04-15 08:42:00,
2013-04-15 02:52:00,21.0,18.0,-100.00,ESE,117,4.0,6.0,88,0.00,,,-99.99,,2013-04-15 08:52:00,
2013-04-15 03:03:00,-999.0,-99.9,-100.00,ESE,112,2.0,4.0,-999,-99.99,,,-99.99,,2013-04-15 09:03:00,
2013-04-15 03:12:00,21.0,17.0,-100.00,ESE,107,2.0,4.0,86,0.00,,,-99.99,,2013-04-15 09:12:00,
2013-04-15 03:22:00,21.0,17.0,-100.00,East,92,4.0,7.0,84,0.00,,,-99.99,,2013-04-15 09:22:00,
2013-04-15 03:33:00,-999.0,-99.9,-100.00,East,92,6.0,7.0,-999,-99.99,,,-99.99,,2013-04-15 09:33:00,
2013-04-15 03:42:00,21.0,16.0,-100.00,East,93,6.0,7.0,81,0.00,,,-99.99,,2013-04-15 09:42:00,
2013-04-15 04:02:00,22.0,16.0,-100.00,NE,54,6.0,9.0,79,0.00,,,-99.99,,2013-04-15 10:02:00,
2013-04-15 04:13:00,22.0,16.0,-100.00,NE,52,6.0,9.0,78,0.00,,,-99.99,,2013-04-15 10:13:00,
2013-04-15 04:23:00,22.0,15.0,-100.00,NE,51,7.0,9.0,74,0.00,,,-99.99,,2013-04-15 10:23:00,
2013-04-15 04:33:00,22.0,15.0,-100.00,NE,40,3.0,7.0,75,0.00,,,-99.99,,2013-04-15 10:33:00,
2013-04-15 04:42:00,21.0,17.0,-100.00,North,0,4.0,9.0,82,0.00,,,-99.99,,2013-04-15 10:42:00,
2013-04-15 04:52:00,21.0,18.0,-100.00,North,11,7.0,10.0,87,0.00,,,-99.99,,2013-04-15 10:52:00,
2013-04-15 05:03:00,21.0,17.0,-100.00,NNE,23,6.0,7.0,85,0.00,,,-99.99,,2013-04-15 11:03:00,
2013-04-15 05:12:00,21.0,18.0,-100.00,NNE,18,7.0,12.0,87,0.00,,,-99.99,,2013-04-15 11:12:00,
2013-04-15 05:22:00,21.0,18.0,-100.00,North,7,9.0,12.0,90,0.00,,,-99.99,,2013-04-15 11:22:00,
2013-04-15 05:32:00,21.0,19.0,-100.00,North,6,9.0,12.0,93,0.00,,,-99.99,,2013-04-15 11:32:00,
2013-04-15 05:42:00,21.0,19.0,-100.00,North,356,7.0,11.0,94,0.00,,,-99.99,,2013-04-15 11:42:00,
2013-04-15 05:53:00,20.0,19.0,-100.00,NNW,342,9.0,12.0,95,0.00,,,-99.99,,2013-04-15 11:53:00,
2013-04-15 06:04:00,20.0,19.0,-100.00,North,360,9.0,14.0,95,0.00,,,-99.99,,2013-04-15 12:04:00,
2013-04-15 06:13:00,20.0,19.0,-100.00,NNE,18,10.0,14.0,95,0.00,,,-99.99,,2013-04-15 12:13:00,
2013-04-15 06:23:00,20.0,19.0,-100.00,North,6,9.0,15.0,95,0.01,,,-99.99,,2013-04-15 12:23:00,
2013-04-15 06:33:00,20.0,19.0,-100.00,North,357,7.0,11.0,96,0.00,,,-99.99,,2013-04-15 12:33:00,
2013-04-15 06:43:00,20.0,19.0,-100.00,North,357,9.0,12.0,95,-99.99,,,-99.99,,2013-04-15 12:43:00,
2013-04-15 06:52:00,20.0,19.0,-100.00,North,8,10.0,16.0,95,0.00,,,-99.99,,2013-04-15 12:52:00,
2013-04-15 07:03:00,20.0,19.0,-100.00,NNE,17,11.0,16.0,94,0.00,,,-99.99,,2013-04-15 13:03:00,
2013-04-15 07:12:00,20.0,19.0,-100.00,NNE,17,11.0,15.0,94,0.00,,,-99.99,,2013-04-15 13:12:00,
2013-04-15 07:23:00,20.0,19.0,-100.00,NNE,13,12.0,16.0,95,0.00,,,-99.99,,2013-04-15 13:23:00,
2013-04-15 07:33:00,20.0,19.0,-100.00,NNE,16,12.0,18.0,95,0.01,,,-99.99,,2013-04-15 13:33:00,
2013-04-15 07:42:00,20.0,19.0,-100.00,NNE,16,12.0,17.0,94,0.00,,,-99.99,,2013-04-15 13:42:00,
2013-04-15 07:53:00,20.0,19.0,-100.00,NNE,13,12.0,17.0,93,0.00,,,-99.99,,2013-04-15 13:53:00,
2013-04-15 08:04:00,21.0,19.0,-100.00,North,10,13.0,19.0,93,0.00,,,-99.99,,2013-04-15 14:04:00,
2013-04-15 08:12:00,21.0,19.0,-100.00,North,10,13.0,19.0,93,0.00,,,-99.99,,2013-04-15 14:12:00,
2013-04-15 08:22:00,21.0,19.0,-100.00,North,7,12.0,16.0,93,0.00,,,-99.99,,2013-04-15 14:22:00,
2013-04-15 08:33:00,21.0,19.0,-100.00,North,1,11.0,17.0,93,0.00,,,-99.99,,2013-04-15 14:33:00,
2013-04-15 08:44:00,20.0,18.0,-100.00,NNE,17,16.0,26.0,91,0.00,,,-99.99,,2013-04-15 14:44:00,
2013-04-15 09:13:00,18.0,17.0,-100.00,North,4,16.0,21.0,94,0.00,,,-99.99,,2013-04-15 15:13:00,
2013-04-15 09:23:00,18.0,17.0,-100.00,North,0,14.0,19.0,93,0.00,,,-99.99,,2013-04-15 15:23:00,
2013-04-15 09:34:00,18.0,17.0,-100.00,North,0,15.0,21.0,93,0.00,,,-99.99,,2013-04-15 15:34:00,
2013-04-15 09:43:00,18.0,17.0,-100.00,North,1,16.0,21.0,93,0.00,,,-99.99,,2013-04-15 15:43:00,
2013-04-15 09:53:00,18.0,17.0,-100.00,North,10,18.0,24.0,93,0.00,,,-99.99,,2013-04-15 15:53:00,
2013-04-15 10:04:00,20.0,18.0,-100.00,NNE,13,19.0,24.0,94,0.00,,,-99.99,,2013-04-15 16:04:00,
2013-04-15 10:13:00,20.0,18.0,-100.00,NNE,24,17.0,22.0,92,0.00,,,-99.99,,2013-04-15 16:13:00,
2013-04-15 10:24:00,20.0,18.0,-100.00,NNE,27,17.0,24.0,91,0.00,,,-99.99,,2013-04-15 16:24:00,
2013-04-15 10:33:00,20.0,17.0,-100.00,NNE,28,16.0,23.0,89,0.00,,,-99.99,,2013-04-15 16:33:00,
2013-04-15 10:43:00,20.0,17.0,-100.00,NNE,31,16.0,22.0,88,0.00,,,-99.99,,2013-04-15 16:43:00,
2013-04-15 10:53:00,21.0,17.0,-100.00,NNE,32,16.0,24.0,87,0.00,,,-99.99,,2013-04-15 16:53:00,
2013-04-15 11:03:00,20.0,17.0,-100.00,NNE,27,16.0,26.0,88,0.00,,,-99.99,,2013-04-15 17:03:00,
2013-04-15 11:14:00,20.0,17.0,-100.00,NNE,25,17.0,26.0,88,0.00,,,-99.99,,2013-04-15 17:14:00,
2013-04-15 11:21:00,20.0,17.0,-100.00,NNE,21,17.0,28.0,87,0.00,,,-99.99,,2013-04-15 17:21:00,
2013-04-15 11:33:00,20.0,17.0,-100.00,NNE,23,18.0,24.0,88,0.01,,,-99.99,,2013-04-15 17:33:00,
2013-04-15 11:52:00,21.0,18.0,-100.00,NNE,23,17.0,27.0,89,0.00,,,-99.99,,2013-04-15 17:52:00,
2013-04-15 12:03:00,21.0,18.0,-100.00,NNE,25,17.0,24.0,89,0.00,,,-99.99,,2013-04-15 18:03:00,
2013-04-15 12:12:00,20.0,17.0,-100.00,NNE,25,19.0,26.0,88,0.00,,,-99.99,,2013-04-15 18:12:00,
2013-04-15 12:23:00,20.0,17.0,-100.00,NNE,25,19.0,26.0,89,0.00,,,-99.99,,2013-04-15 18:23:00,
2013-04-15 12:32:00,21.0,18.0,-100.00,NNE,27,17.0,25.0,89,0.00,,,-99.99,,2013-04-15 18:32:00,
2013-04-15 12:42:00,21.0,18.0,-100.00,NNE,28,16.0,22.0,88,0.00,,,-99.99,,2013-04-15 18:42:00,
2013-04-15 12:52:00,21.0,17.0,-100.00,NNE,27,16.0,24.0,86,0.00,,,-99.99,,2013-04-15 18:52:00,
2013-04-15 13:02:00,21.0,18.0,-100.00,NNE,25,16.0,27.0,87,0.00,,,-99.99,,2013-04-15 19:02:00,
2013-04-15 13:12:00,21.0,18.0,-100.00,NNE,25,16.0,27.0,87,0.00,,,-99.99,,2013-04-15 19:12:00,
2013-04-15 13:22:00,20.0,17.0,-100.00,NNE,21,18.0,26.0,88,0.00,,,-99.99,,2013-04-15 19:22:00,
2013-04-15 13:57:00,20.0,17.0,-100.00,NNE,24,18.0,26.0,90,0.00,,,-99.99,,2013-04-15 19:57:00,
2013-04-15 14:11:00,19.0,16.0,-100.00,NNE,27,17.0,22.0,89,0.00,,,-99.99,,2013-04-15 20:11:00,
2013-04-15 14:22:00,19.0,17.0,-100.00,NNE,23,20.0,26.0,91,0.03,,,-99.99,,2013-04-15 20:22:00,
2013-04-15 14:32:00,19.0,17.0,-100.00,NNE,24,17.0,26.0,91,0.01,,,-99.99,,2013-04-15 20:32:00,
2013-04-15 14:42:00,19.0,17.0,-100.00,NNE,27,16.0,23.0,91,0.01,,,-99.99,,2013-04-15 20:42:00,
2013-04-15 14:52:00,-999.0,-99.9,-100.00,NNE,24,17.0,23.0,-999,-99.99,,,-99.99,,2013-04-15 20:52:00,
2013-04-15 15:02:00,20.0,18.0,-100.00,NNE,21,16.0,24.0,91,0.01,,,-99.99,,2013-04-15 21:02:00,
2013-04-15 15:12:00,20.0,17.0,-100.00,NNE,24,17.0,24.0,91,0.01,,,-99.99,,2013-04-15 21:12:00,
2013-04-15 15:22:00,20.0,17.0,-100.00,NNE,27,15.0,24.0,89,0.01,,,-99.99,,2013-04-15 21:22:00,
2013-04-15 15:32:00,20.0,17.0,-100.00,NNE,20,19.0,26.0,88,0.01,,,-99.99,,2013-04-15 21:32:00,
2013-04-15 15:42:00,20.0,17.0,-100.00,NNE,18,19.0,24.0,86,0.00,,,-99.99,,2013-04-15 21:42:00,
2013-04-15 15:53:00,20.0,16.0,-100.00,NNE,23,17.0,24.0,85,0.00,,,-99.99,,2013-04-15 21:53:00,
2013-04-15 16:02:00,20.0,16.0,-100.00,NNE,25,17.0,24.0,85,0.00,,,-99.99,,2013-04-15 22:02:00,
2013-04-15 16:13:00,20.0,16.0,-100.00,NNE,24,17.0,24.0,86,0.00,,,-99.99,,2013-04-15 22:13:00,
2013-04-15 16:23:00,20.0,17.0,-100.00,NNE,25,17.0,22.0,88,0.00,,,-99.99,,2013-04-15 22:23:00,
2013-04-15 16:32:00,20.0,16.0,-100.00,NNE,20,19.0,26.0,85,0.00,,,-99.99,,2013-04-15 22:32:00,
2013-04-15 16:42:00,20.0,16.0,-100.00,NNE,20,19.0,27.0,85,0.00,,,-99.99,,2013-04-15 22:42:00,
2013-04-15 16:52:00,-999.0,-99.9,-100.00,NNE,23,17.0,26.0,-999,-99.99,,,-99.99,,2013-04-15 22:52:00,
2013-04-15 17:02:00,20.0,16.0,-100.00,NNE,23,17.0,21.0,86,0.00,,,-99.99,,2013-04-15 23:02:00,
2013-04-15 17:12:00,20.0,16.0,-100.00,NNE,24,17.0,23.0,85,0.00,,,-99.99,,2013-04-15 23:12:00,
2013-04-15 17:22:00,19.0,16.0,-100.00,NNE,24,17.0,22.0,86,0.00,,,-99.99,,2013-04-15 23:22:00,
2013-04-15 17:32:00,19.0,16.0,-100.00,NNE,24,17.0,21.0,86,0.00,,,-99.99,,2013-04-15 23:32:00,
2013-04-15 17:42:00,-999.0,-99.9,-100.00,NNE,21,17.0,24.0,-999,-99.99,,,-99.99,,2013-04-15 23:42:00,
2013-04-15 17:52:00,19.0,15.0,-100.00,NNE,18,18.0,23.0,86,0.00,,,-99.99,,2013-04-15 23:52:00,
2013-04-15 18:02:00,19.0,15.0,-100.00,NNE,17,18.0,23.0,84,0.00,,,-99.99,,2013-04-16 00:02:00,
2013-04-15 18:12:00,19.0,15.0,-100.00,NNE,18,18.0,23.0,84,0.00,,,-99.99,,2013-04-16 00:12:00,
2013-04-15 18:22:00,19.0,15.0,-100.00,NNE,18,17.0,22.0,83,0.00,,,-99.99,,2013-04-16 00:22:00,
2013-04-15 18:32:00,19.0,15.0,-100.00,NNE,18,17.0,23.0,85,0.00,,,-99.99,,2013-04-16 00:32:00,
2013-04-15 18:42:00,19.0,15.0,-100.00,NNE,27,14.0,19.0,86,0.00,,,-99.99,,2013-04-16 00:42:00,
2013-04-15 18:52:00,19.0,15.0,-100.00,NNE,21,17.0,23.0,86,0.00,,,-99.99,,2013-04-16 00:52:00,
2013-04-15 19:02:00,18.0,15.0,-100.00,NNE,17,18.0,23.0,86,0.00,,,-99.99,,2013-04-16 01:02:00,
2013-04-15 19:12:00,18.0,15.0,-100.00,NNE,21,16.0,23.0,87,0.00,,,-99.99,,2013-04-16 01:12:00,
2013-04-15 19:22:00,18.0,15.0,-100.00,NNE,20,18.0,24.0,86,0.00,,,-99.99,,2013-04-16 01:22:00,
2013-04-15 19:32:00,18.0,15.0,-100.00,NNE,18,18.0,24.0,87,0.00,,,-99.99,,2013-04-16 01:32:00,
2013-04-15 19:42:00,18.0,15.0,-100.00,NNE,17,17.0,24.0,88,0.00,,,-99.99,,2013-04-16 01:42:00,
2013-04-15 19:52:00,18.0,15.0,-100.00,NNE,14,19.0,26.0,90,0.00,,,-99.99,,2013-04-16 01:52:00,
2013-04-15 20:02:00,18.0,15.0,-100.00,NNE,21,16.0,22.0,89,0.00,,,-99.99,,2013-04-16 02:02:00,
2013-04-15 20:12:00,18.0,15.0,-100.00,NNE,18,17.0,22.0,90,0.00,,,-99.99,,2013-04-16 02:12:00,
2013-04-15 20:22:00,17.0,15.0,-100.00,NNE,20,19.0,24.0,90,0.00,,,-99.99,,2013-04-16 02:22:00,
2013-04-15 20:32:00,17.0,15.0,-100.00,NNE,18,19.0,24.0,90,0.00,,,-99.99,,2013-04-16 02:32:00,
2013-04-15 20:42:00,17.0,15.0,-100.00,NNE,18,17.0,24.0,90,0.00,,,-99.99,,2013-04-16 02:42:00,
2013-04-15 20:52:00,17.0,15.0,-100.00,NNE,17,19.0,24.0,92,0.01,,,-99.99,,2013-04-16 02:52:00,
2013-04-15 21:02:00,17.0,15.0,-100.00,NNE,18,18.0,22.0,93,0.00,,,-99.99,,2013-04-16 03:02:00,
2013-04-15 21:12:00,17.0,15.0,-100.00,NNE,16,19.0,23.0,93,0.00,,,-99.99,,2013-04-16 03:12:00,
2013-04-15 21:22:00,17.0,15.0,-100.00,NNE,16,17.0,23.0,93,0.00,,,-99.99,,2013-04-16 03:22:00,
2013-04-15 21:33:00,17.0,15.0,-100.00,North,11,19.0,24.0,93,0.00,,,-99.99,,2013-04-16 03:33:00,
2013-04-15 21:43:00,17.0,15.0,-100.00,NNE,18,17.0,22.0,94,0.04,,,-99.99,,2013-04-16 03:43:00,
2013-04-15 21:52:00,17.0,15.0,-100.00,NNE,17,17.0,22.0,94,0.00,,,-99.99,,2013-04-16 03:52:00,
2013-04-15 22:03:00,-999.0,-99.9,-100.00,NNE,17,19.0,23.0,-999,-99.99,,,-99.99,,2013-04-16 04:03:00,
2013-04-15 22:23:00,17.0,15.0,-100.00,NNE,21,16.0,21.0,94,0.00,,,-99.99,,2013-04-16 04:23:00,
2013-04-15 22:33:00,17.0,15.0,-100.00,NNE,21,16.0,21.0,93,0.00,,,-99.99,,2013-04-16 04:33:00,
2013-04-15 22:42:00,17.0,15.0,-100.00,NNE,20,17.0,24.0,94,0.00,,,-99.99,,2013-04-16 04:42:00,
2013-04-15 22:52:00,17.0,15.0,-100.00,NNE,23,16.0,21.0,94,0.00,,,-99.99,,2013-04-16 04:52:00,
2013-04-15 23:02:00,16.0,15.0,-100.00,NNE,24,18.0,23.0,94,0.00,,,-99.99,,2013-04-16 05:02:00,
2013-04-15 23:12:00,17.0,15.0,-100.00,NNE,24,19.0,23.0,94,0.00,,,-99.99,,2013-04-16 05:12:00,
2013-04-15 23:22:00,16.0,15.0,-100.00,NNE,27,19.0,26.0,93,0.00,,,-99.99,,2013-04-16 05:22:00,
2013-04-15 23:32:00,16.0,14.0,-100.00,NNE,28,18.0,26.0,93,0.00,,,-99.99,,2013-04-16 05:32:00,
2013-04-15 23:42:00,16.0,14.0,-100.00,NNE,24,22.0,27.0,93,0.00,,,-99.99,,2013-04-16 05:42:00,
2013-04-15 23:52:00,16.0,14.0,-100.00,NNE,23,22.0,29.0,93,0.00,,,-99.99,,2013-04-16 05:52:00,